Location: Caltech
(34.1382°N, 118.1253°W)
Time: 01:56:42
(UTC-08:00)

Cosmos 1980 Rocket - Visible Passes

Search period start: 28 February 2017 00:00
Search period end: 10 March 2017 00:00
Orbit: 829 x 850 km, 71.0° (Epoch: 27 February)

Date Brightness Start Highest point End Pass type
(mag) Time Alt. Az. Time Alt. Az. Time Alt. Az.
28 Feb 4.6 05:22:22 10° SSE 05:26:51 25° ESE 05:31:22 10° NE visible
01 Mar 4.7 05:06:52 10° SSE 05:11:13 24° E 05:15:36 10° NE visible
02 Mar 4.7 04:51:24 10° SSE 04:55:35 22° E 04:59:47 10° NE visible
03 Mar 4.8 04:35:57 10° SSE 04:39:57 20° E 04:43:59 10° NE visible
04 Mar 4.8 04:20:31 10° SE 04:24:19 19° E 04:28:08 10° ENE visible
05 Mar 4.8 04:05:07 10° SE 04:08:41 18° E 04:12:17 10° ENE visible
05 Mar 2.4 05:46:45 10° SW 05:52:10 51° WNW 05:57:39 10° N visible
06 Mar 4.9 03:49:44 10° SE 03:53:04 16° E 03:56:24 10° ENE visible
06 Mar 2.3 05:31:02 10° SW 05:36:29 54° WNW 05:42:01 10° NNE visible
07 Mar 4.9 03:34:23 10° SE 03:37:26 15° E 03:40:29 10° ENE visible
07 Mar 2.2 05:15:19 10° SW 05:20:48 59° WNW 05:26:23 10° NNE visible
08 Mar 4.9 03:19:06 10° SE 03:21:49 14° E 03:24:31 10° ENE visible
08 Mar 2.2 04:59:36 10° SSW 05:05:08 63° WNW 05:10:44 10° NNE visible
09 Mar 4.9 03:03:52 10° ESE 03:06:11 13° E 03:08:30 10° ENE visible
09 Mar 2.1 04:44:58 16° SSW 04:49:28 68° WNW 04:55:05 10° NNE visible
